EW5923 Weather Reports


Display with metric or nautical units.
time (UTC)temp
F
wind
direction
speed
MPH
gust
MPH
rain 1hr
in
rain 24hr
in
rain mn
in
humidity
%
barometer
mb
20260507060121 65 354 2.0 3.0 0.00 0.00 0.00 31 1014.3
20260507055121 67 335 1.0 2.0 0.00 0.00 0.00 30 1014.4
20260507054121 69 347 2.0 3.0 0.00 0.00 0.00 28 1014.3
20260507053121 68 352 4.0 5.0 0.00 0.00 0.00 29 1014.3
20260507052121 67 360 3.0 4.0 0.00 0.00 0.00 30 1014.3
20260507051121 67 360 2.0 3.0 0.00 0.00 0.00 30 1014.3
20260507050142 67 360 2.0 2.0 0.00 0.00 0.00 30 1014.3
20260507045121 67 360 1.0 2.0 0.00 0.00 0.00 29 1014.2
20260507044121 68 360 0.0 0.0 0.00 0.00 0.00 29 1014.2
20260507043121 68 360 1.0 2.0 0.00 0.00 0.00 28 1014.1
20260507042121 69 357 2.0 3.0 0.00 0.00 0.00 28 1014.0
20260507041121 69 360 2.0 3.0 0.00 0.00 0.00 27 1013.8
20260507040142 70 360 2.0 3.0 0.00 0.00 0.00 27 1013.7
20260507035122 70 348 2.0 3.0 0.00 0.00 0.00 27 1013.6
20260507034121 72 360 0.0 2.0 0.00 0.00 0.00 27 1013.5
20260507033121 74 360 0.0 2.0 0.00 0.00 0.00 25 1013.4
20260507032122 75 323 1.0 2.0 0.00 0.00 0.00 24 1013.2
20260507031142 76 328 2.0 3.0 0.00 0.00 0.00 23 1013.2
20260507030142 77 335 2.0 3.0 0.00 0.00 0.00 23 1013.0
20260507025121 77 350 2.0 4.0 0.00 0.00 0.00 23 1012.9
20260507024121 78 294 3.0 4.0 0.00 0.00 0.00 22 1012.8
20260507023121 78 357 3.0 6.0 0.00 0.00 0.00 22 1012.7
20260507022142 79 360 2.0 3.0 0.00 0.00 0.00 22 1012.6
20260507021121 79 360 3.0 6.0 0.00 0.00 0.00 22 1012.4
20260507020121 79 360 3.0 5.0 0.00 0.00 0.00 22 1012.6
20260507015122 80 352 5.0 8.0 0.00 0.00 0.00 21 1012.6
20260507014121 80 360 4.0 10.0 0.00 0.00 0.00 21 1012.4
20260507013122 80 359 5.0 6.0 0.00 0.00 0.00 21 1012.5
20260507012121 81 357 5.0 10.0 0.00 0.00 0.00 21 1012.4
20260507011121 81 359 4.0 7.0 0.00 0.00 0.00 21 1012.4
20260507010123 81 356 5.0 10.0 0.00 0.00 0.00 21 1012.4
20260507005121 81 352 6.0 10.0 0.00 0.00 0.00 21 1012.4
20260507004121 81 353 5.0 10.0 0.00 0.00 0.00 21 1012.5
20260507003142 81 354 5.0 9.0 0.00 0.00 0.00 21 1012.4
20260507002123 80 359 4.0 9.0 0.00 0.00 0.00 21 1012.4
20260507001121 82 360 4.0 7.0 0.00 0.00 0.00 21 1012.4
20260507000121 81 358 4.0 9.0 0.00 0.00 0.00 21 1012.4
20260506235144 82 356 7.0 12.0 0.00 0.00 0.00 20 1012.4
20260506234122 82 353 4.0 9.0 0.00 0.00 0.00 20 1012.5
20260506233121 81 356 9.0 14.0 0.00 0.00 0.00 20 1012.5
20260506232121 81 355 4.0 9.0 0.00 0.00 0.00 21 1012.6
20260506231121 82 356 7.0 13.0 0.00 0.00 0.00 21 1012.7
20260506230121 82 358 7.0 11.0 0.00 0.00 0.00 21 1012.6
20260506225121 82 356 6.0 10.0 0.00 0.00 0.00 20 1012.7
20260506224121 80 359 5.0 11.0 0.00 0.00 0.00 21 1013.0
20260506223121 81 356 7.0 13.0 0.00 0.00 0.00 21 1013.1
20260506222123 80 355 4.0 9.0 0.00 0.00 0.00 21 1013.2
20260506221121 81 356 9.0 14.0 0.00 0.00 0.00 21 1013.3
20260506220143 80 359 7.0 12.0 0.00 0.00 0.00 21 1013.5
20260506215122 80 352 6.0 13.0 0.00 0.00 0.00 21 1013.5
20260506214123 80 358 7.0 11.0 0.00 0.00 0.00 21 1013.7
20260506213122 81 358 6.0 13.0 0.00 0.00 0.00 21 1013.9
20260506212121 80 358 6.0 13.0 0.00 0.00 0.00 22 1014.0
20260506211143 79 359 6.0 12.0 0.00 0.00 0.00 22 1014.2
20260506210121 79 359 7.0 11.0 0.00 0.00 0.00 22 1014.3
20260506205122 78 357 5.0 10.0 0.00 0.00 0.00 22 1014.4
20260506204121 79 360 9.0 14.0 0.00 0.00 0.00 22 1014.6
20260506203122 79 359 8.0 13.0 0.00 0.00 0.00 22 1014.7
20260506202123 78 358 4.0 10.0 0.00 0.00 0.00 23 1014.7
20260506201122 77 355 7.0 11.0 0.00 0.00 0.00 23 1014.8
20260506200122 77 5 4.0 9.0 0.00 0.00 0.00 23 1014.9
20260506195146 77 360 3.0 10.0 0.00 0.00 0.00 24 1015.1
20260506194143 77 359 8.0 14.0 0.00 0.00 0.00 24 1015.2
20260506193121 77 18 3.0 6.0 0.00 0.00 0.00 24 1015.2
20260506192122 76 360 6.0 10.0 0.00 0.00 0.00 25 1015.5
20260506191121 76 355 6.0 10.0 0.00 0.00 0.00 25 1015.4
20260506190143 76 357 5.0 10.0 0.00 0.00 0.00 26 1015.5
20260506185142 76 2 8.0 16.0 0.00 0.00 0.00 26 1015.6
20260506184121 74 357 6.0 12.0 0.00 0.00 0.00 27 1015.6
20260506183122 74 351 5.0 9.0 0.00 0.00 0.00 27 1015.7
20260506182122 75 354 7.0 11.0 0.00 0.00 0.00 27 1015.9
20260506181122 74 359 4.0 8.0 0.00 0.00 0.00 28 1015.8
20260506180122 74 359 6.0 12.0 0.00 0.00 0.00 28 1016.0
20260506175122 72 351 4.0 6.0 0.00 0.00 0.00 30 1016.1
20260506174122 73 357 5.0 9.0 0.00 0.00 0.00 30 1016.2
20260506173125 73 352 5.0 9.0 0.00 0.00 0.00 30 1016.2
20260506172122 71 299 3.0 8.0 0.00 0.00 0.00 32 1016.1
20260506171121 72 345 4.0 8.0 0.00 0.00 0.00 31 1016.2
20260506170122 71 355 3.0 8.0 0.00 0.00 0.00 33 1016.1
20260506165121 71 354 5.0 10.0 0.00 0.00 0.00 33 1016.1
20260506164439 70 351 4.0 8.0 0.00 0.00 0.00 33 1016.1
20260506162142 69 347 2.0 9.0 0.00 0.00 0.00 34 1015.9
20260506161122 69 358 4.0 8.0 0.00 0.00 0.00 34 1016.1
20260506160143 69 338 1.0 4.0 0.00 0.00 0.00 35 1016.0
20260506155122 68 359 4.0 8.0 0.00 0.00 0.00 36 1016.1
20260506154122 68 353 2.0 5.0 0.00 0.00 0.00 37 1016.0
20260506153122 67 358 3.0 6.0 0.00 0.00 0.00 38 1016.0
20260506152122 66 3 1.0 3.0 0.00 0.00 0.00 38 1016.1
20260506151143 67 17 2.0 4.0 0.00 0.00 0.00 38 1016.1
20260506150123 67 20 1.0 4.0 0.00 0.00 0.00 39 1016.2
20260506145122 65 6 2.0 4.0 0.00 0.00 0.00 40 1016.0
20260506144121 65 22 3.0 5.0 0.00 0.00 0.00 40 1016.1
20260506143122 64 61 3.0 4.0 0.00 0.00 0.00 41 1016.0
20260506142122 63 12 3.0 6.0 0.00 0.00 0.00 42 1015.8
20260506141122 63 20 3.0 5.0 0.00 0.00 0.00 43 1015.9
20260506140122 62 16 2.0 3.0 0.00 0.00 0.00 44 1015.7
20260506135122 61 54 1.0 3.0 0.00 0.00 0.00 47 1015.5
20260506134122 60 41 1.0 2.0 0.00 0.00 0.00 48 1015.4
20260506133143 58 5 2.0 3.0 0.00 0.00 0.00 49 1015.4
20260506132122 56 8 3.0 4.0 0.00 0.00 0.00 51 1015.3
20260506131122 54 13 3.0 4.0 0.00 0.00 0.00 53 1015.1
20260506130122 53 360 0.0 0.0 0.00 0.00 0.00 54 1015.0
20260506125122 54 59 1.0 3.0 0.00 0.00 0.00 53 1014.9
20260506124122 53 5 2.0 4.0 0.00 0.00 0.00 53 1014.8
20260506123122 52 8 3.0 4.0 0.00 0.00 0.00 53 1014.6
20260506122122 52 12 3.0 4.0 0.00 0.00 0.00 53 1014.4
20260506121122 52 360 3.0 4.0 0.00 0.00 0.00 53 1014.4
20260506120122 52 357 2.0 3.0 0.00 0.00 0.00 53 1014.3
20260506115122 52 360 2.0 3.0 0.00 0.00 0.00 53 1014.2
20260506114122 52 358 3.0 4.0 0.00 0.00 0.00 54 1014.2
20260506113122 52 347 2.0 3.0 0.00 0.00 0.00 53 1014.3
20260506112122 53 360 1.0 2.0 0.00 0.00 0.00 53 1014.1
20260506111122 54 345 0.0 1.0 0.00 0.00 0.00 52 1014.1
20260506110122 53 349 2.0 3.0 0.00 0.00 0.00 52 1014.0
20260506105122 53 360 2.0 3.0 0.00 0.00 0.00 53 1014.1
20260506104122 53 360 3.0 3.0 0.00 0.00 0.00 51 1013.9
20260506103122 54 360 3.0 3.0 0.00 0.00 0.00 50 1013.8
20260506102122 54 360 1.0 2.0 0.00 0.00 0.00 49 1013.7
20260506101122 54 360 2.0 2.0 0.00 0.00 0.00 49 1013.6
20260506100143 54 360 2.0 2.0 0.00 0.00 0.00 49 1013.5
20260506095143 55 360 2.0 3.0 0.00 0.00 0.00 49 1013.4
20260506094143 55 360 2.0 3.0 0.00 0.00 0.00 49 1013.5
20260506093122 55 355 2.0 3.0 0.00 0.00 0.00 48 1013.5
20260506092122 56 360 1.0 2.0 0.00 0.00 0.00 47 1013.4
20260506091143 56 360 1.0 2.0 0.00 0.00 0.00 46 1013.3
20260506090122 56 360 2.0 3.0 0.00 0.00 0.00 47 1013.2
20260506085122 56 360 0.0 0.0 0.00 0.00 0.00 45 1013.3
20260506084122 57 360 1.0 2.0 0.00 0.00 0.00 44 1013.2
20260506083122 57 359 2.0 3.0 0.00 0.00 0.00 45 1013.2
20260506082122 57 353 2.0 3.0 0.00 0.00 0.00 44 1013.2
20260506081122 57 360 1.0 2.0 0.00 0.00 0.00 43 1013.1
20260506080123 57 360 2.0 3.0 0.00 0.00 0.00 43 1013.0
20260506073143 58 358 2.0 3.0 0.00 0.00 0.00 41 1013.1
20260506072122 59 360 3.0 4.0 0.00 0.00 0.00 41 1013.1
20260506071143 58 360 3.0 4.0 0.00 0.00 0.00 41 1012.9
20260506070122 58 360 2.0 3.0 0.00 0.00 0.00 41 1012.9
20260506062123 62 360 2.0 4.0 0.00 0.00 0.00 37 1012.7
20260506061122 61 360 3.0 4.0 0.00 0.00 0.00 37 1012.8